"SCET";"TARGET";"ELECTRON_DENSITY";"ERROR_FLAG";"ELECTRON_DENSITY_ERROR";"FREQ_FCE";"MEASURED_VALUE";"MEASURED_ITEM";"FREQ_PLASMA";"FREQ_UPPER_HYBRID";"FREQ_R_EQUALS_ZERO";"FREQ_L_EQUALS_ZERO";"ORBIT_NUMBER";"SATURN_RADIUS";"SATURN_IAU_LONGITUDE";"SATURN_SLS4_S_LONGITUDE";"SATURN_SLS4_N_LONGITUDE";"SATURN_SLS5_S_LONGITUDE";"SATURN_SLS5_N_LONGITUDE";"SATURN_LOCAL_TIME";"SATURN_KRONOGRAPHIC_LATITUDE";"SATURN_MAGNETIC_LATITUDE";"SATURN_L";"SATURN_L_OFFSET";"SATURN_SOLAR_EQUATORIAL_X";"SATURN_SOLAR_EQUATORIAL_Y";"SATURN_SOLAR_EQUATORIAL_Z";"SATURN_ALTITUDE";"ENCELADUS_ENCOUNTER_NUMBER";"ENCELADUS_RADIUS";"ENCELADUS_COROTATIONAL_X";"ENCELADUS_COROTATIONAL_Y";"ENCELADUS_COROTATIONAL_Z";"ENCELADUS_TRUE_ANOMALY";"ENCELADUS_PERIAPSIS_TIME";"JUPITER_RADIUS";"JUPITER_SYSTEMIII_LONGITUDE";"JUPITER_MAGNETIC_LATITUDE";"JUPITER_MAGNETIC_LOCAL_TIME";"JUPITER_L";"IO_PHASE";"EARTH_RADIUS";"EARTH_MAGNETIC_LATITUDE";"EARTH_LOCAL_TIME";"EARTH_L"
"[UTC]";"[0=Saturn, 1=Enceladus, 2=Jupiter, 3=Earth]";"[cm-3]";"[0=automated, 1=manual]";"[normalized density error]";"[Hz]";"[Hz]";"[0=upper hybrid frequency, 1=plasma frequency cutoff]";"[Hz]";"[Hz]";"[Hz]";"[Hz}";"[0, A, B, C, 3, 4, ... , 292, 293]";"[Rs where 1Rs=60268km]";"[degrees]";"[degrees]";"[degrees]";"[degrees]";"[degrees]";"[hours]";"[degrees]";"[degrees where offset=2293km north]";"[Rs where 1Rs=60268km]";"[Rs where 1Rs=60268km and offset=2293km north]";"[Rs where 1Rs=60268km]";"[Rs where 1Rs=60268km]";"[Rs where 1Rs=60268km]";"[km where ellipsoid a,b=60268km and c=54364km]";"[E0, E1, E2, ... , E21, E22]";"[Renc where 1Renc=252.1km]";"[Renc where 1Renc=252.1km]";"[Renc where 1Renc=252.1km]";"[Renc where 1Renc=252.1km]";"[degrees]";"[UTC]";"[Rj where 1Rj=71492km]";"[degrees]";"[degrees using JRM09 model]";"[hours using JRM09 model]";"[Rj where 1Rj=71492km]";"[degrees]";"[Re where 1Re=6378.1366km]";"[degrees]";"[hours]";"[Re where 1Re=6378.1366km]"
2008-01-03T21:02:31.086Z;0;3.2380e+01;0;     0.077;  5492.228;  51392.098; 0;  51097.781;  51392.098;  53917.633;  48425.402; 55;   4.685; 138.901; 336.896; 218.223; 322.617; 198.242;  22.748;   7.183;   6.721;   4.759;   4.675;  -4.401;   1.497;   0.586;;;;;;;;;;;;;;;;;;
2008-01-03T21:02:39.086Z;0;3.2360e+01;0;     0.078;  5492.228;  51380.281; 0;  51085.895;  51380.281;  53905.766;  48413.535; 55;   4.684; 138.958; 336.951; 218.280; 322.672; 198.298;  22.749;   7.169;   6.707;   4.758;   4.675;  -4.400;   1.495;   0.584;;;;;;;;;;;;;;;;;;
2008-01-03T21:02:47.086Z;0;3.1650e+01;0;     0.087;  5492.228;  50813.910; 0;  50516.223;  50813.910;  53336.926;  47844.695; 55;   4.683; 139.014; 337.006; 218.337; 322.727; 198.355;  22.750;   7.155;   6.693;   4.757;   4.674;  -4.400;   1.493;   0.583;;;;;;;;;;;;;;;;;;
2008-01-03T21:02:55.086Z;0;3.2380e+01;0;     0.078;  5492.228;  51395.480; 0;  51101.184;  51395.480;  53921.031;  48428.801; 55;   4.683; 139.070; 337.062; 218.394; 322.782; 198.411;  22.751;   7.141;   6.679;   4.756;   4.673;  -4.400;   1.492;   0.582;;;;;;;;;;;;;;;;;;
2008-01-03T21:03:03.086Z;0;3.2670e+01;0;     0.077;  5492.228;  51621.145; 0;  51328.141;  51621.145;  54147.660;  48655.434; 55;   4.682; 139.127; 337.117; 218.451; 322.837; 198.467;  22.753;   7.127;   6.664;   4.755;   4.672;  -4.400;   1.490;   0.581;;;;;;;;;;;;;;;;;;
2008-01-03T21:03:11.086Z;0;3.2350e+01;0;     0.076;  5492.228;  51367.387; 0;  51072.926;  51367.387;  53892.816;  48400.586; 55;   4.681; 139.183; 337.172; 218.508; 322.892; 198.523;  22.754;   7.113;   6.650;   4.754;   4.672;  -4.400;   1.488;   0.579;;;;;;;;;;;;;;;;;;
2008-01-03T21:03:19.086Z;0;3.2630e+01;0;     0.080;  5492.228;  51585.523; 0;  51292.316;  51585.523;  54111.887;  48619.660; 55;   4.680; 139.239; 337.227; 218.565; 322.946; 198.580;  22.755;   7.099;   6.636;   4.753;   4.671;  -4.400;   1.487;   0.578;;;;;;;;;;;;;;;;;;
2008-01-03T21:03:27.086Z;0;3.2890e+01;0;     0.079;  5492.228;  51790.652; 0;  51498.613;  51790.652;  54317.891;  48825.664; 55;   4.680; 139.296; 337.283; 218.622; 323.001; 198.636;  22.756;   7.084;   6.622;   4.752;   4.670;  -4.400;   1.485;   0.577;;;;;;;;;;;;;;;;;;
2008-01-03T21:03:35.086Z;0;3.2620e+01;0;     0.076;  5492.228;  51583.145; 0;  51289.922;  51583.145;  54109.500;  48617.273; 55;   4.679; 139.352; 337.338; 218.678; 323.056; 198.692;  22.758;   7.070;   6.608;   4.751;   4.669;  -4.400;   1.484;   0.576;;;;;;;;;;;;;;;;;;
2008-01-03T21:03:43.086Z;0;3.3290e+01;0;     0.084;  5492.228;  52100.645; 0;  51810.352;  52100.645;  54629.191;  49136.965; 55;   4.678; 139.408; 337.393; 218.735; 323.111; 198.748;  22.759;   7.056;   6.593;   4.750;   4.669;  -4.400;   1.482;   0.575;;;;;;;;;;;;;;;;;;
2008-01-03T21:03:51.086Z;0;3.2930e+01;0;     0.086;  5492.228;  51824.605; 0;  51532.758;  51824.605;  54351.988;  48859.762; 55;   4.677; 139.465; 337.448; 218.792; 323.166; 198.804;  22.760;   7.042;   6.579;   4.749;   4.668;  -4.400;   1.480;   0.573;;;;;;;;;;;;;;;;;;
2008-01-03T21:03:59.086Z;0;3.2640e+01;0;     0.082;  5492.228;  51597.270; 0;  51304.129;  51597.270;  54123.684;  48631.457; 55;   4.677; 139.521; 337.504; 218.849; 323.220; 198.860;  22.761;   7.028;   6.565;   4.748;   4.667;  -4.400;   1.479;   0.572;;;;;;;;;;;;;;;;;;
2008-01-03T21:04:07.086Z;0;3.4660e+01;0;     0.101;  5507.628;  53153.348; 0;  52867.234;  53153.348;  55692.723;  50185.094; 55;   4.676; 139.577; 337.559; 218.906; 323.275; 198.916;  22.763;   7.014;   6.551;   4.747;   4.666;  -4.400;   1.477;   0.571;;;;;;;;;;;;;;;;;;
2008-01-03T21:04:15.086Z;0;3.2790e+01;0;     0.087;  5507.628;  51713.066; 0;  51418.938;  51713.066;  54246.441;  48738.812; 55;   4.675; 139.634; 337.614; 218.963; 323.330; 198.972;  22.764;   7.000;   6.537;   4.745;   4.666;  -4.399;   1.475;   0.570;;;;;;;;;;;;;;;;;;
2008-01-03T21:04:23.085Z;0;3.3000e+01;0;     0.086;  5507.628;  51882.949; 0;  51589.789;  51882.949;  54417.051;  48909.422; 55;   4.674; 139.690; 337.669; 219.020; 323.384; 199.028;  22.765;   6.986;   6.522;   4.744;   4.665;  -4.399;   1.474;   0.568;;;;;;;;;;;;;;;;;;
2008-01-03T21:04:31.085Z;0;3.5030e+01;0;     0.092;  5507.628;  53436.922; 0;  53152.336;  53436.922;  55977.438;  50469.809; 55;   4.674; 139.746; 337.724; 219.076; 323.439; 199.084;  22.766;   6.971;   6.508;   4.743;   4.664;  -4.399;   1.472;   0.567;;;;;;;;;;;;;;;;;;
2008-01-03T21:04:39.085Z;0;3.3090e+01;0;     0.085;  5507.628;  51951.359; 0;  51658.590;  51951.359;  54485.750;  48978.121; 55;   4.673; 139.803; 337.780; 219.133; 323.494; 199.140;  22.768;   6.957;   6.494;   4.742;   4.664;  -4.399;   1.470;   0.566;;;;;;;;;;;;;;;;;;
2008-01-03T21:04:47.085Z;0;3.2600e+01;0;     0.080;  5507.628;  51569.555; 0;  51274.605;  51569.555;  54102.316;  48594.688; 55;   4.672; 139.859; 337.835; 219.190; 323.548; 199.196;  22.769;   6.943;   6.480;   4.741;   4.663;  -4.399;   1.469;   0.565;;;;;;;;;;;;;;;;;;
2008-01-03T21:04:55.085Z;0;3.3370e+01;0;     0.086;  5507.628;  52165.242; 0;  51873.680;  52165.242;  54700.535;  49192.910; 55;   4.671; 139.915; 337.890; 219.247; 323.603; 199.252;  22.770;   6.929;   6.465;   4.740;   4.662;  -4.399;   1.467;   0.563;;;;;;;;;;;;;;;;;;
2008-01-03T21:05:03.085Z;0;3.5210e+01;0;     0.088;  5522.944;  53570.176; 0;  53284.715;  53570.176;  56117.695;  50594.750; 55;   4.671; 139.971; 337.945; 219.304; 323.657; 199.308;  22.771;   6.915;   6.451;   4.739;   4.661;  -4.399;   1.466;   0.562;;;;;;;;;;;;;;;;;;
2008-01-03T21:05:11.085Z;0;3.5010e+01;0;     0.089;  5522.944;  53417.875; 0;  53131.594;  53417.875;  55964.781;  50441.840; 55;   4.670; 140.028; 338.000; 219.360; 323.712; 199.364;  22.773;   6.901;   6.437;   4.738;   4.661;  -4.399;   1.464;   0.561;;;;;;;;;;;;;;;;;;
2008-01-03T21:05:19.085Z;0;3.5400e+01;0;     0.087;  5522.944;  53711.059; 0;  53426.352;  53711.059;  56259.141;  50736.199; 55;   4.669; 140.084; 338.055; 219.417; 323.767; 199.420;  22.774;   6.886;   6.423;   4.737;   4.660;  -4.399;   1.462;   0.560;;;;;;;;;;;;;;;;;;
2008-01-03T21:05:27.085Z;0;3.5900e+01;0;     0.081;  5522.944;  54087.152; 0;  53804.434;  54087.152;  56636.727;  51113.781; 55;   4.668; 140.140; 338.111; 219.474; 323.821; 199.476;  22.775;   6.872;   6.408;   4.736;   4.659;  -4.399;   1.461;   0.558;;;;;;;;;;;;;;;;;;
2008-01-03T21:05:35.085Z;0;3.3510e+01;0;     0.091;  5522.944;  52279.270; 0;  51986.719;  52279.270;  54821.484;  49298.539; 55;   4.668; 140.197; 338.166; 219.531; 323.876; 199.531;  22.776;   6.858;   6.394;   4.735;   4.658;  -4.399;   1.459;   0.557;;;;;;;;;;;;;;;;;;
2008-01-03T21:05:43.085Z;0;3.3340e+01;0;     0.086;  5522.944;  52140.973; 0;  51847.645;  52140.973;  54682.602;  49159.660; 55;   4.667; 140.253; 338.221; 219.588; 323.930; 199.587;  22.778;   6.844;   6.380;   4.734;   4.658;  -4.398;   1.457;   0.556;;;;;;;;;;;;;;;;;;
2008-01-03T21:05:51.085Z;0;3.5710e+01;0;     0.079;  5522.944;  53949.473; 0;  53666.027;  53949.473;  56498.504;  50975.559; 55;   4.666; 140.309; 338.276; 219.644; 323.984; 199.643;  22.779;   6.830;   6.366;   4.733;   4.657;  -4.398;   1.456;   0.555;;;;;;;;;;;;;;;;;;
2008-01-03T21:05:59.085Z;0;3.5460e+01;0;     0.082;  5522.944;  53759.102; 0;  53474.648;  53759.102;  56307.375;  50784.434; 55;   4.665; 140.365; 338.331; 219.701; 324.039; 199.699;  22.780;   6.816;   6.351;   4.732;   4.656;  -4.398;   1.454;   0.554;;;;;;;;;;;;;;;;;;
2008-01-03T21:06:07.085Z;0;3.4740e+01;0;     0.088;  5539.324;  53218.559; 0;  52929.488;  53218.559;  55771.566;  50232.242; 55;   4.665; 140.422; 338.386; 219.758; 324.093; 199.754;  22.781;   6.801;   6.337;   4.731;   4.655;  -4.398;   1.452;   0.552;;;;;;;;;;;;;;;;;;
2008-01-03T21:06:15.085Z;0;3.5130e+01;0;     0.083;  5539.324;  53515.305; 0;  53227.848;  53515.305;  56069.520;  50530.195; 55;   4.664; 140.478; 338.442; 219.815; 324.148; 199.810;  22.783;   6.787;   6.323;   4.730;   4.655;  -4.398;   1.451;   0.551;;;;;;;;;;;;;;;;;;
2008-01-03T21:06:23.085Z;0;3.5230e+01;0;     0.079;  5539.324;  53584.469; 0;  53297.383;  53584.469;  56138.961;  50599.637; 55;   4.663; 140.534; 338.497; 219.872; 324.202; 199.866;  22.784;   6.773;   6.308;   4.729;   4.654;  -4.398;   1.449;   0.550;;;;;;;;;;;;;;;;;;
2008-01-03T21:06:31.085Z;0;3.4480e+01;0;     0.090;  5539.324;  53022.578; 0;  52732.434;  53022.578;  55574.781;  50035.457; 55;   4.662; 140.590; 338.552; 219.928; 324.256; 199.921;  22.785;   6.759;   6.294;   4.728;   4.653;  -4.398;   1.448;   0.549;;;;;;;;;;;;;;;;;;
2008-01-03T21:06:39.084Z;0;3.5480e+01;0;     0.076;  5539.324;  53777.289; 0;  53491.238;  53777.289;  56332.559;  50793.234; 55;   4.662; 140.646; 338.607; 219.985; 324.310; 199.977;  22.786;   6.744;   6.280;   4.727;   4.653;  -4.398;   1.446;   0.547;;;;;;;;;;;;;;;;;;
2008-01-03T21:06:47.084Z;0;3.5860e+01;0;     0.075;  5539.324;  54059.676; 0;  53775.129;  54059.676;  56616.066;  51076.746; 55;   4.661; 140.703; 338.662; 220.042; 324.365; 200.033;  22.788;   6.730;   6.265;   4.726;   4.652;  -4.398;   1.444;   0.546;;;;;;;;;;;;;;;;;;
2008-01-03T21:06:55.084Z;0;3.5300e+01;0;     0.079;  5539.324;  53638.406; 0;  53351.613;  53638.406;  56193.117;  50653.793; 55;   4.660; 140.759; 338.717; 220.099; 324.419; 200.088;  22.789;   6.716;   6.251;   4.725;   4.651;  -4.398;   1.443;   0.545;;;;;;;;;;;;;;;;;;
2008-01-03T21:07:03.084Z;0;3.5850e+01;0;     0.075;  5554.920;  54051.184; 0;  53764.980;  54051.184;  56614.137;  51059.215; 55;   4.659; 140.815; 338.772; 220.155; 324.473; 200.144;  22.790;   6.702;   6.237;   4.724;   4.650;  -4.398;   1.441;   0.544;;;;;;;;;;;;;;;;;;
2008-01-03T21:07:11.084Z;0;3.6430e+01;0;     0.079;  5554.920;  54481.523; 0;  54197.594;  54481.523;  57046.176;  51491.258; 55;   4.659; 140.871; 338.827; 220.212; 324.527; 200.199;  22.792;   6.687;   6.222;   4.723;   4.650;  -4.397;   1.439;   0.542;;;;;;;;;;;;;;;;;;
2008-01-03T21:07:19.084Z;0;3.6300e+01;0;     0.079;  5554.920;  54391.848; 0;  54107.449;  54391.848;  56956.148;  51401.227; 55;   4.658; 140.928; 338.882; 220.269; 324.582; 200.255;  22.793;   6.673;   6.208;   4.722;   4.649;  -4.397;   1.438;   0.541;;;;;;;;;;;;;;;;;;
2008-01-03T21:07:27.084Z;0;3.5880e+01;0;     0.075;  5554.920;  54073.781; 0;  53787.699;  54073.781;  56636.824;  51081.902; 55;   4.657; 140.984; 338.938; 220.325; 324.636; 200.310;  22.794;   6.659;   6.194;   4.721;   4.648;  -4.397;   1.436;   0.540;;;;;;;;;;;;;;;;;;
2008-01-03T21:07:35.084Z;0;3.6120e+01;0;     0.083;  5554.920;  54254.914; 0;  53969.793;  54254.914;  56818.676;  51263.754; 55;   4.656; 141.040; 338.993; 220.382; 324.690; 200.366;  22.795;   6.645;   6.179;   4.720;   4.647;  -4.397;   1.435;   0.539;;;;;;;;;;;;;;;;;;
2008-01-03T21:07:43.084Z;0;3.6050e+01;0;     0.077;  5554.920;  54200.949; 0;  53915.543;  54200.949;  56764.496;  51209.574; 55;   4.656; 141.096; 339.048; 220.439; 324.744; 200.421;  22.797;   6.630;   6.165;   4.719;   4.647;  -4.397;   1.433;   0.537;;;;;;;;;;;;;;;;;;
2008-01-03T21:07:51.084Z;0;3.8080e+01;0;     0.092;  5554.920;  55694.414; 0;  55416.699;  55694.414;  58263.719;  52708.797; 55;   4.655; 141.152; 339.103; 220.496; 324.798; 200.477;  22.798;   6.616;   6.151;   4.718;   4.646;  -4.397;   1.431;   0.536;;;;;;;;;;;;;;;;;;
2008-01-03T21:07:59.084Z;0;3.5980e+01;0;     0.080;  5554.920;  54148.766; 0;  53863.082;  54148.766;  56712.105;  51157.184; 55;   4.654; 141.208; 339.158; 220.552; 324.852; 200.532;  22.799;   6.602;   6.136;   4.717;   4.645;  -4.397;   1.430;   0.535;;;;;;;;;;;;;;;;;;
2008-01-03T21:08:07.084Z;0;3.5860e+01;0;     0.076;  5569.116;  54065.805; 0;  53778.215;  54065.805;  56634.812;  51065.695; 55;   4.653; 141.265; 339.213; 220.609; 324.906; 200.587;  22.800;   6.588;   6.122;   4.716;   4.644;  -4.397;   1.428;   0.534;;;;;;;;;;;;;;;;;;
2008-01-03T21:08:15.084Z;0;3.6790e+01;0;     0.087;  5569.116;  54749.023; 0;  54465.039;  54749.023;  57320.730;  51751.617; 55;   4.653; 141.321; 339.268; 220.666; 324.960; 200.643;  22.802;   6.573;   6.108;   4.714;   4.644;  -4.397;   1.426;   0.532;;;;;;;;;;;;;;;;;;
2008-01-03T21:08:23.084Z;0;3.6390e+01;0;     0.082;  5569.116;  54456.504; 0;  54170.988;  54456.504;  57027.066;  51457.949; 55;   4.652; 141.377; 339.323; 220.722; 325.014; 200.698;  22.803;   6.559;   6.093;   4.713;   4.643;  -4.397;   1.425;   0.531;;;;;;;;;;;;;;;;;;
2008-01-03T21:08:31.084Z;0;3.6520e+01;0;     0.080;  5569.116;  54550.230; 0;  54265.207;  54550.230;  57121.160;  51552.043; 55;   4.651; 141.433; 339.378; 220.779; 325.068; 200.753;  22.804;   6.545;   6.079;   4.712;   4.642;  -4.396;   1.423;   0.530;;;;;;;;;;;;;;;;;;
2008-01-03T21:08:39.084Z;0;3.6690e+01;0;     0.082;  5569.116;  54681.383; 0;  54397.047;  54681.383;  57252.828;  51683.711; 55;   4.651; 141.489; 339.433; 220.836; 325.122; 200.809;  22.805;   6.530;   6.064;   4.711;   4.642;  -4.396;   1.421;   0.529;;;;;;;;;;;;;;;;;;
2008-01-03T21:08:47.084Z;0;3.8550e+01;0;     0.088;  5569.116;  56030.793; 0;  55753.340;  56030.793;  58607.391;  53038.273; 55;   4.650; 141.545; 339.488; 220.892; 325.176; 200.864;  22.807;   6.516;   6.050;   4.710;   4.641;  -4.396;   1.420;   0.528;;;;;;;;;;;;;;;;;;
2008-01-03T21:08:55.084Z;0;3.9070e+01;0;     0.082;  5569.116;  56402.609; 0;  56126.992;  56402.609;  58980.582;  53411.465; 55;   4.649; 141.602; 339.543; 220.949; 325.230; 200.919;  22.808;   6.502;   6.036;   4.709;   4.640;  -4.396;   1.418;   0.526;;;;;;;;;;;;;;;;;;
2008-01-03T21:09:03.083Z;0;3.8990e+01;0;     0.077;  5586.252;  56347.328; 0;  56069.734;  56347.328;  58932.387;  53346.137; 55;   4.648; 141.658; 339.598; 221.006; 325.284; 200.974;  22.809;   6.487;   6.021;   4.708;   4.639;  -4.396;   1.416;   0.525;;;;;;;;;;;;;;;;;;
2008-01-03T21:09:11.083Z;0;3.7490e+01;0;     0.094;  5586.252;  55269.082; 0;  54986.047;  55269.082;  57850.066;  52263.816; 55;   4.648; 141.714; 339.653; 221.062; 325.338; 201.030;  22.810;   6.473;   6.007;   4.707;   4.639;  -4.396;   1.415;   0.524;;;;;;;;;;;;;;;;;;
2008-01-03T21:09:19.083Z;0;3.7620e+01;0;     0.096;  5586.252;  55360.449; 0;  55077.883;  55360.449;  57941.785;  52355.535; 55;   4.647; 141.770; 339.708; 221.119; 325.392; 201.085;  22.812;   6.459;   5.992;   4.706;   4.638;  -4.396;   1.413;   0.523;;;;;;;;;;;;;;;;;;
2008-01-03T21:09:27.083Z;0;3.8080e+01;0;     0.090;  5586.252;  55698.910; 0;  55418.070;  55698.910;  58281.539;  52695.285; 55;   4.646; 141.826; 339.763; 221.176; 325.445; 201.140;  22.813;   6.444;   5.978;   4.705;   4.637;  -4.396;   1.412;   0.521;;;;;;;;;;;;;;;;;;
2008-01-03T21:09:35.083Z;0;3.8850e+01;0;     0.081;  5586.252;  56248.051; 0;  55969.965;  56248.051;  58832.742;  53246.488; 55;   4.645; 141.882; 339.818; 221.232; 325.499; 201.195;  22.814;   6.430;   5.963;   4.704;   4.636;  -4.396;   1.410;   0.520;;;;;;;;;;;;;;;;;;
2008-01-03T21:09:43.083Z;0;4.1440e+01;0;     0.098;  5586.252;  58076.523; 0;  57807.234;  58076.523;  60667.801;  55081.547; 55;   4.645; 141.938; 339.873; 221.289; 325.553; 201.250;  22.815;   6.416;   5.949;   4.703;   4.636;  -4.395;   1.408;   0.519;;;;;;;;;;;;;;;;;;
2008-01-03T21:09:51.083Z;0;3.9410e+01;0;     0.082;  5586.252;  56652.980; 0;  56376.891;  56652.980;  59239.168;  53652.914; 55;   4.644; 141.994; 339.928; 221.346; 325.607; 201.305;  22.817;   6.401;   5.935;   4.702;   4.635;  -4.395;   1.407;   0.518;;;;;;;;;;;;;;;;;;
2008-01-03T21:09:59.083Z;0;3.6380e+01;0;     0.088;  5586.252;  54452.047; 0;  54164.742;  54452.047;  57029.836;  51443.586; 55;   4.643; 142.051; 339.983; 221.402; 325.660; 201.360;  22.818;   6.387;   5.920;   4.701;   4.634;  -4.395;   1.405;   0.516;;;;;;;;;;;;;;;;;;
2008-01-03T21:10:07.083Z;0;3.9360e+01;0;     0.081;  5601.624;  56616.520; 0;  56338.727;  56616.520;  59209.113;  53607.492; 55;   4.642; 142.107; 340.038; 221.459; 325.715; 201.417;  22.819;   6.373;   5.906;   4.700;   4.634;  -4.395;   1.403;   0.515;;;;;;;;;;;;;;;;;;
2008-01-03T21:10:15.083Z;0;3.9400e+01;0;     0.085;  5601.624;  56642.035; 0;  56364.367;  56642.035;  59234.727;  53633.102; 55;   4.642; 142.163; 340.093; 221.516; 325.770; 201.473;  22.821;   6.358;   5.891;   4.699;   4.633;  -4.395;   1.402;   0.514;;;;;;;;;;;;;;;;;;
2008-01-03T21:10:23.083Z;0;3.8860e+01;0;     0.079;  5601.624;  56262.176; 0;  55982.625;  56262.176;  58853.453;  53251.832; 55;   4.641; 142.219; 340.148; 221.572; 325.826; 201.529;  22.822;   6.344;   5.877;   4.698;   4.632;  -4.395;   1.400;   0.513;;;;;;;;;;;;;;;;;;
2008-01-03T21:10:31.083Z;0;3.9570e+01;0;     0.082;  5601.624;  56764.160; 0;  56487.094;  56764.160;  59357.301;  53755.676; 55;   4.640; 142.275; 340.203; 221.629; 325.881; 201.586;  22.823;   6.330;   5.862;   4.697;   4.631;  -4.395;   1.398;   0.511;;;;;;;;;;;;;;;;;;
2008-01-03T21:10:39.083Z;0;3.9630e+01;0;     0.081;  5601.624;  56810.418; 0;  56533.578;  56810.418;  59403.727;  53802.102; 55;   4.639; 142.331; 340.258; 221.685; 325.936; 201.642;  22.824;   6.315;   5.848;   4.696;   4.631;  -4.395;   1.397;   0.510;;;;;;;;;;;;;;;;;;
2008-01-03T21:10:47.083Z;0;3.9410e+01;0;     0.078;  5601.624;  56653.727; 0;  56376.117;  56653.727;  59246.461;  53644.836; 55;   4.639; 142.387; 340.313; 221.742; 325.991; 201.699;  22.826;   6.301;   5.833;   4.695;   4.630;  -4.395;   1.395;   0.509;;;;;;;;;;;;;;;;;;
2008-01-03T21:10:55.083Z;0;3.9770e+01;0;     0.086;  5601.624;  56910.230; 0;  56633.879;  56910.230;  59503.906;  53902.281; 55;   4.638; 142.443; 340.368; 221.799; 326.046; 201.755;  22.827;   6.286;   5.819;   4.694;   4.629;  -4.394;   1.394;   0.508;;;;;;;;;;;;;;;;;;
2008-01-03T21:11:03.083Z;0;3.9600e+01;0;     0.086;  5618.228;  56789.512; 0;  56510.922;  56789.512;  59389.812;  53771.582; 55;   4.637; 142.499; 340.423; 221.855; 326.101; 201.812;  22.828;   6.272;   5.804;   4.693;   4.629;  -4.394;   1.392;   0.506;;;;;;;;;;;;;;;;;;
2008-01-03T21:11:11.083Z;0;4.1790e+01;0;     0.093;  5618.228;  58322.863; 0;  58051.633;  58322.863;  60928.672;  55310.445; 55;   4.637; 142.555; 340.478; 221.912; 326.156; 201.868;  22.829;   6.258;   5.790;   4.692;   4.628;  -4.394;   1.390;   0.505;;;;;;;;;;;;;;;;;;
2008-01-03T21:11:19.083Z;0;3.9580e+01;0;     0.081;  5618.228;  56771.113; 0;  56492.430;  56771.113;  59371.344;  53753.117; 55;   4.636; 142.611; 340.533; 221.968; 326.211; 201.925;  22.831;   6.243;   5.775;   4.691;   4.627;  -4.394;   1.389;   0.504;;;;;;;;;;;;;;;;;;
2008-01-03T21:11:27.082Z;0;3.9750e+01;0;     0.082;  5618.228;  56895.977; 0;  56617.910;  56895.977;  59496.668;  53878.441; 55;   4.635; 142.667; 340.588; 222.025; 326.267; 201.981;  22.832;   6.229;   5.761;   4.690;   4.626;  -4.394;   1.387;   0.503;;;;;;;;;;;;;;;;;;
2008-01-03T21:11:35.082Z;0;3.9700e+01;0;     0.083;  5618.228;  56862.496; 0;  56584.266;  56862.496;  59463.062;  53844.836; 55;   4.634; 142.723; 340.643; 222.082; 326.322; 202.038;  22.833;   6.214;   5.746;   4.689;   4.626;  -4.394;   1.385;   0.502;;;;;;;;;;;;;;;;;;
2008-01-03T21:11:43.082Z;0;4.0150e+01;0;     0.089;  5618.228;  57176.402; 0;  56899.707;  57176.402;  59778.121;  54159.891; 55;   4.634; 142.779; 340.698; 222.138; 326.377; 202.094;  22.834;   6.200;   5.732;   4.688;   4.625;  -4.394;   1.384;   0.500;;;;;;;;;;;;;;;;;;
2008-01-03T21:11:51.082Z;0;4.2630e+01;0;     0.092;  5618.228;  58901.973; 0;  58633.418;  58901.973;  61509.785;  55891.559; 55;   4.633; 142.835; 340.753; 222.195; 326.432; 202.151;  22.836;   6.185;   5.717;   4.687;   4.624;  -4.394;   1.382;   0.499;;;;;;;;;;;;;;;;;;
2008-01-03T21:11:59.082Z;0;3.9640e+01;0;     0.083;  5618.228;  56814.449; 0;  56535.980;  56814.449;  59414.840;  53796.613; 55;   4.632; 142.891; 340.808; 222.251; 326.487; 202.207;  22.837;   6.171;   5.703;   4.686;   4.623;  -4.394;   1.380;   0.498;;;;;;;;;;;;;;;;;;
2008-01-03T21:12:07.082Z;0;4.0270e+01;0;     0.087;  5634.020;  57264.711; 0;  56986.883;  57264.711;  59873.477;  54239.457; 55;   4.631; 142.947; 340.863; 222.308; 326.543; 202.264;  22.838;   6.157;   5.688;   4.685;   4.623;  -4.393;   1.379;   0.497;;;;;;;;;;;;;;;;;;
2008-01-03T21:12:15.082Z;0;4.2480e+01;0;     0.085;  5634.020;  58795.941; 0;  58525.383;  58795.941;  61410.148;  55776.129; 55;   4.631; 143.004; 340.918; 222.364; 326.598; 202.320;  22.840;   6.142;   5.674;   4.684;   4.622;  -4.393;   1.377;   0.495;;;;;;;;;;;;;;;;;;
2008-01-03T21:12:23.082Z;0;4.2930e+01;0;     0.083;  5634.020;  59110.020; 0;  58840.906;  59110.020;  61725.309;  56091.289; 55;   4.630; 143.060; 340.973; 222.421; 326.653; 202.377;  22.841;   6.128;   5.659;   4.683;   4.621;  -4.393;   1.376;   0.494;;;;;;;;;;;;;;;;;;
2008-01-03T21:12:31.082Z;0;4.1500e+01;0;     0.101;  5634.020;  58120.219; 0;  57846.500;  58120.219;  60732.062;  55098.043; 55;   4.629; 143.116; 341.027; 222.477; 326.708; 202.434;  22.842;   6.113;   5.645;   4.682;   4.621;  -4.393;   1.374;   0.493;;;;;;;;;;;;;;;;;;
2008-01-03T21:12:39.082Z;0;4.0210e+01;0;     0.081;  5634.020;  57220.379; 0;  56942.336;  57220.379;  59828.984;  54194.965; 55;   4.628; 143.172; 341.082; 222.534; 326.764; 202.490;  22.843;   6.099;   5.630;   4.681;   4.620;  -4.393;   1.372;   0.492;;;;;;;;;;;;;;;;;;
2008-01-03T21:12:47.082Z;0;4.2200e+01;0;     0.092;  5634.020;  58609.074; 0;  58337.648;  58609.074;  61222.633;  55588.613; 55;   4.628; 143.228; 341.137; 222.591; 326.819; 202.547;  22.845;   6.084;   5.616;   4.680;   4.619;  -4.393;   1.371;   0.490;;;;;;;;;;;;;;;;;;
2008-01-03T21:12:55.082Z;0;4.2480e+01;0;     0.090;  5634.020;  58799.574; 0;  58529.035;  58799.574;  61413.797;  55779.777; 55;   4.627; 143.284; 341.192; 222.647; 326.874; 202.604;  22.846;   6.070;   5.601;   4.679;   4.618;  -4.393;   1.369;   0.489;;;;;;;;;;;;;;;;;;
2008-01-03T21:13:03.082Z;0;4.3080e+01;0;     0.083;  5650.652;  59212.859; 0;  58942.625;  59212.859;  61835.625;  56184.973; 55;   4.626; 143.340; 341.247; 222.704; 326.930; 202.660;  22.847;   6.055;   5.586;   4.678;   4.618;  -4.393;   1.367;   0.488;;;;;;;;;;;;;;;;;;